This is the latest recevied weather packets stored in our database for station/object KS5S. If no packets are shown the sender has not sent any weather packets the latest 1 day(s).
| Time | Temp. | Humidity | Pressure | Rain* | Wind** | Luminosity | Snow |
|---|---|---|---|---|---|---|---|
| 1777996998 | 26.67° C | 78% | 1003.4 hPa | 0 mm | 4.02 m/s, 228° | 490 W/m² | - |
| 1777996694 | 26.11° C | 77% | 1003.2 hPa | 0 mm | 4.02 m/s, 231° | 457 W/m² | - |
| 1777996389 | 26.11° C | 78% | 1003.1 hPa | 0 mm | 4.47 m/s, 198° | 585 W/m² | - |
| 1777996086 | 26.67° C | 78% | 1003.3 hPa | 0 mm | 3.13 m/s, 211° | 469 W/m² | - |
| 1777995782 | 26.11° C | 78% | 1003.3 hPa | 0 mm | 3.13 m/s, 195° | 550 W/m² | - |
| 1777995479 | 26.11° C | 79% | 1003.3 hPa | 0 mm | 5.81 m/s, 215° | 534 W/m² | - |
| 1777995176 | 26.11° C | 79% | 1003.5 hPa | 0 mm | 1.79 m/s, 207° | 501 W/m² | - |
| 1777994873 | 26.11° C | 80% | 1003.5 hPa | 0 mm | 4.47 m/s, 215° | 582 W/m² | - |
| 1777994570 | 26.11° C | 80% | 1003.3 hPa | 0 mm | 4.92 m/s, 208° | 676 W/m² | - |
| 1777994264 | 25.56° C | 81% | 1003.4 hPa | 0 mm | 1.79 m/s, 219° | 594 W/m² | - |
| 1777993962 | 25.56° C | 81% | 1003.4 hPa | 0 mm | 3.13 m/s, 216° | 548 W/m² | - |
| 1777993658 | 25.56° C | 81% | 1003.7 hPa | 0 mm | 1.79 m/s, 209° | 447 W/m² | - |
| 1777993356 | 25° C | 83% | 1003.8 hPa | 0 mm | 2.24 m/s, 218° | 434 W/m² | - |
| 1777993050 | 25° C | 83% | 1003.7 hPa | 0 mm | 2.68 m/s, 210° | 334 W/m² | - |
| 1777992748 | 25° C | 82% | 1003.8 hPa | 0 mm | 4.02 m/s, 212° | 431 W/m² | - |
| 1777992446 | 24.44° C | 83% | 1003.8 hPa | 0 mm | 4.47 m/s, 196° | 411 W/m² | - |
| 1777992144 | 24.44° C | 84% | 1003.7 hPa | 0 mm | 3.13 m/s, 224° | 272 W/m² | - |
| 1777991841 | 25° C | 83% | 1003.8 hPa | 0 mm | 3.58 m/s, 211° | 372 W/m² | - |
| 1777991538 | 24.44° C | 84% | 1003.7 hPa | 0 mm | 1.79 m/s, 236° | 410 W/m² | - |
| 1777991235 | 24.44° C | 85% | 1003.7 hPa | 0 mm | 1.79 m/s, 225° | 357 W/m² | - |
| 1777990932 | 24.44° C | 84% | 1003.7 hPa | 0 mm | 3.58 m/s, 218° | 345 W/m² | - |
| 1777990630 | 23.89° C | 86% | 1003.3 hPa | 0 mm | 2.68 m/s, 192° | 375 W/m² | - |
| 1777990327 | 23.89° C | 86% | 1003.5 hPa | 0 mm | 4.02 m/s, 217° | 283 W/m² | - |
| 1777990023 | 23.89° C | 86% | 1003.4 hPa | 0 mm | 4.92 m/s, 247° | 215 W/m² | - |
| 1777989720 | 23.89° C | 87% | 1003.4 hPa | 0 mm | 2.24 m/s, 229° | 246 W/m² | - |
* Rain latest hour (hover to see other rain measurements)
** Current wind speed in m/s (hover to see current wind gust speed)